Regional Weather Roundup
Issued by NWS Spokane, WA

Home | Current Version | Previous Version | Text Only | Print | Product List | Glossary On
Versions: 1 2 3 4 5 6 7 8 9 10 11 12 13 14 15 16 17 18 19 20 21 22 23 24 25 26 27 28 29 30 31 32 33 34 35 36 37 38 39 40 41 42 43 44 45 46 47 48 49 50
000
NZUS01 KOTX 252110
RWROTX

Eastern Washington/Northern Idaho Roundup
National Weather Service, Spokane WA
200 PM PDT SUN JUN 25 2017

Note: "fair" indicated few or no clouds below 12,000 feet with no
significant weather and/or obstructions to visibility.

...Northeast Washington and Northern Idaho Panhandle...

CITY           SKY/WX    TMP DP  RH WIND       PRES   REMARKS
Spokane Intl   MOSUNNY   88  44  21 VRB7      30.07F
Spokane Downto MOSUNNY   93  40  15 E9        30.05F
Coeur d Alene  MOSUNNY   87  46  24 NE6       30.07F
Deer Park      MOSUNNY   88  42  20 VRB3      30.07F
Sandpoint      SUNNY     86  43  22 SE5       30.07F
Bonners Ferry  FAIR      84  48  28 SW3       30.09F

...Southeast Washington and southern Idaho Panhandle...

CITY           SKY/WX    TMP DP  RH WIND       PRES   REMARKS
Walla Walla    SUNNY     95  44  17 NE9       29.95F HX  91
Pullman/Moscow MOSUNNY   89  46  22 SE10G17   30.07F
Lewiston       SUNNY     93  54  26 VRB6      29.98F HX  91
Lowell           N/A     97  53  22 CALM      29.95F HX  94
Grangeville    FAIR      86  50  28 CALM      30.11S

...Columbia Basin...

CITY           SKY/WX    TMP DP  RH WIND       PRES   REMARKS
Ephrata        SUNNY     95  38  13 NE5       29.97F HX  90
Moses Lake     MOSUNNY   94  44  17 VRB3      29.97F HX  90
Pasco          SUNNY     93  53  25 CALM      29.92F HX  90
Richland       CLEAR     93  50  23 CALM      29.92F HX  90
Hermiston      SUNNY     96  43  16 N10       29.91F HX  92
Pendleton      SUNNY     97  39  13 VRB7      29.95F HX  92

...East Slopes Cascades...

CITY           SKY/WX    TMP DP  RH WIND       PRES   REMARKS
The Dalles     SUNNY    100  44  14 NE13      29.86F HX  96
Yakima         SUNNY     97  45  16 S8        29.95F HX  93
Ellensburg     SUNNY     95  37  13 VRB6      30.00F HX  90
Stampede Pass  SUNNY     83  46  27 VRB5      30.11F
Wenatchee      SUNNY     91  39  16 E5        29.97F
Omak           SUNNY     92  43  18 SW12      29.99F
Sunnyside      CLEAR     89  53  28 SE5       29.94F

...Southern British Columbia...

CITY           SKY/WX    TMP DP  RH WIND       PRES   REMARKS
Penticton      PTSUNNY   90  52  27 S14G20    29.92F
Castlegar      MOSUNNY   90  52  27 VRB2      30.01F
Cranbrook      MOSUNNY   84  43  23 E7        30.12F
Osoyoos          N/A     91  46  21 SE6         N/A
Creston          N/A     86  52  30 W3          N/A

...Western Montana...

CITY           SKY/WX    TMP DP  RH WIND       PRES   REMARKS
Kalispell      CLEAR     83  40  21 MISG      30.16F
Missoula       SUNNY     85  41  21 VRB3      30.15F

...Neighboring Cities...

CITY           SKY/WX    TMP DP  RH WIND       PRES   REMARKS
Seattle        PTSUNNY   93  51  23 VRB3      29.87F HX  90
Portland       MOSUNNY   96  49  20 W9        29.81F HX  93
Boise          SUNNY     94  39  14 CALM      30.06F HX  90
Great Falls    SUNNY     79  37  22 VRB3      30.23F
Calgary        MOSUNNY   77  43  29 SE15G22   30.18F



USA.gov is the U.S. government's official web portal to all federal, state and local government web resources and services.